Terminal Aerodrome Forecast
Issued by NWS Aberdeen, SD

Home | Current Version | Previous Version | Text Only | Print | Product List | Glossary On
Versions: 1 2 3 4 5 6 7 8 9 10 11 12 13 14 15 16 17 18 19 20 21 22 23 24 25 26 27 28 29 30 31 32 33 34 35 36 37 38 39 40 41 42 43 44 45 46 47 48 49 50
000
FTAK31 PAFA 272145 AAB
TAFABR
TAF AMD
PABR 272145Z 2722/2818 26019KT 4SM BLSN OVC010
      TEMPO 2722/2723 3SM BLSN
     FM280000 24012KT 2SM -SHSN BR OVC015
     FM280400 16010KT 2SM -SHSN BR OVC010
     FM280800 10012KT 2SM -SHSN BR BKN010 OVC025=

USA.gov is the U.S. government's official web portal to all federal, state and local government web resources and services.